COSMOS 2477 (745)

Last updated on Wed Sep 17 2025 00:03:19 GMT+0000 (Coordinated Universal Time)

1 37868U 11064B 25259.62853888 .00000044 00000+0 00000+0 0 9991 2 37868 65.1199 82.1941 0019023 231.1299 128.7103 2.13102928107921
UTC large
Height (km)
Speed (km/s)
/
Latitude / Longitude
Inclination (degrees)
Orbital Period (minutes)
Azimuth
Elevation
Range (km)
Doppler Factor

Next 0 passes for location: London (51.5072 / 0.1276)

Sorry there are no passes over London.